Change the Weather History Date:

Monday, October 17, 2011

  Actual Average Record
Temperature  
Mean Temperature 69 °F -  
Max Temperature 78 °F 70 °F 86 °F (1991)
Min Temperature 60 °F 45 °F 32 °F (1968)
Cooling Degree Days 4    
Growing Degree Days 19 (Base 50)    
Moisture  
Dew Point 31 °F    
Average Humidity 26    
Maximum Humidity 41    
Minimum Humidity 15    
Precipitation  
Precipitation 0.00 in - - ()
Sea Level Pressure  
Sea Level Pressure 30.02 in    
Wind  
Wind Speed 5 mph (NW)    
Max Wind Speed 10 mph    
Max Gust Speed -    
Visibility 10 miles    
Events      
Averages and records for this station are not official NWS values.
T = Trace of Precipitation, MM = Missing Value Source: NWS Daily Summary

Daily Weather History Graph

Daily Weather History Graph

Search for Another Location

Airport or City:

Trip Planner

Search our weather history database for the weather conditions in past years. The results will help you decide how hot, cold, wet, or windy it might be!

Date:

Astronomy

Oct. 17, 2011 Rise Set
Actual Time 6:35 AM MST 5:46 PM MST
Civil Twilight 6:08 AM MST 6:12 PM MST
Nautical Twilight 5:38 AM MST 6:42 PM MST
Astronomical Twilight 5:08 AM MST 7:12 PM MST
Moon 9:36 PM MST (10/17) 11:38 AM MST (10/17)
Length of Visible Light 12h 04m
Length of Day
11h 11m
Waning Gibbous, 73% of the Moon is Illuminated
Oct 17
Waning Gibbous
Oct 19
Last Quarter
Oct 26
New
Nov 2
First Quarter
Nov 10
Full

Hourly Weather History & Observations

Time (MST) Temp. Dew Point Humidity Pressure Visibility Wind Dir Wind Speed Gust Speed Precip Events Conditions
12:53 AM 66.9 °F 34.0 °F 30% 29.88 in 10.0 mi South 6.9 mph - N/A   Clear
1:53 AM 64.0 °F 36.0 °F 35% 29.90 in 10.0 mi Calm Calm - N/A   Clear
2:53 AM 66.2 °F 35.6 °F 32% 30.07 in 10.0 mi NNW 3.5 mph - N/A   Clear
3:53 AM 64.0 °F 36.0 °F 35% 29.89 in 10.0 mi WNW 3.5 mph - N/A   Clear
4:53 AM 60.1 °F 36.0 °F 41% 29.93 in 10.0 mi Calm Calm - N/A   Clear
5:53 AM 64.9 °F 35.1 °F 33% 29.96 in 10.0 mi West 3.5 mph - N/A   Clear
6:53 AM 66.2 °F 33.8 °F 30% 30.13 in 10.0 mi West 4.6 mph - N/A   Clear
7:53 AM 68.0 °F 35.1 °F 30% 29.99 in 10.0 mi Variable 5.8 mph - N/A   Clear
8:53 AM 71.1 °F 36.0 °F 28% 30.01 in 10.0 mi WNW 9.2 mph - N/A   Clear
9:53 AM 73.0 °F 33.1 °F 23% 30.03 in 10.0 mi NW 10.4 mph - N/A   Clear
10:53 AM 73.0 °F 30.9 °F 21% 30.03 in 10.0 mi West 6.9 mph - N/A   Clear
11:53 AM 75.0 °F 30.0 °F 19% 30.05 in 10.0 mi Variable 6.9 mph - N/A   Clear
12:53 PM 77.0 °F 30.9 °F 19% 30.02 in 10.0 mi East 6.9 mph - N/A   Clear
1:53 PM 78.1 °F 28.9 °F 17% 30.01 in 10.0 mi ENE 5.8 mph - N/A   Clear
2:53 PM 78.1 °F 28.0 °F 16% 30.00 in 10.0 mi North 5.8 mph - N/A   Clear
3:53 PM 78.1 °F 27.0 °F 15% 30.00 in 10.0 mi ENE 6.9 mph - N/A   Clear
4:53 PM 75.9 °F 26.1 °F 16% 30.01 in 10.0 mi East 6.9 mph - N/A   Clear
5:53 PM 72.0 °F 27.0 °F 19% 30.00 in 10.0 mi Calm Calm - N/A   Clear
6:53 PM 68.0 °F 25.0 °F 20% 30.03 in 10.0 mi ESE 3.5 mph - N/A   Clear
7:53 PM 64.9 °F 28.0 °F 25% 30.04 in 10.0 mi Calm Calm - N/A   Clear
8:53 PM 63.0 °F 30.9 °F 30% 30.05 in 10.0 mi WSW 3.5 mph - N/A   Clear
9:53 PM 61.0 °F 30.9 °F 32% 30.07 in 10.0 mi Calm Calm - N/A   Clear
10:53 PM 60.8 °F 24.8 °F 25% 30.22 in 10.0 mi SSW 5.8 mph - N/A   Clear
11:53 PM 60.1 °F 24.1 °F 25% 30.07 in 10.0 mi WNW 3.5 mph - N/A   Clear